Wind_Speed
14 14 15 15 15 15 15 15 14 15 15 15 15 15 15 15 15 15 16 16 16 17 17 17 17 17 16 16 16 16 16 16 16 16 16 15 15 15 15 15 15 14 15 15 16 16 16 18 18 19 19 18 19 16 16 18 16 15 16 18 17 17 15 11 9 10 9 2 2 3 5 7 6 9 12 18 19 14 19 18 16 18 12 13 15 14 16 12
13 14 14 14 14 14 14 14 14 14 14 14 15 15 15 14 14 14 15 16 16 17 16 17 17 17 17 16 16 16 16 16 16 16 15 15 15 14 14 14 14 14 14 14 14 15 15 16 16 18 19 17 17 16 16 18 19 17 18 19 19 17 13 10 8 6 6 3 1 1 4 6 6 8 8 12 17 15 18 19 16 16 13 11 14 15 15 14
13 13 13 14 14 14 14 14 14 14 14 14 14 15 15 14 14 14 14 15 16 16 16 17 16 17 16 16 16 15 16 15 16 17 15 15 15 14 13 13 13 13 14 14 14 14 14 13 14 17 17 16 16 16 17 18 20 20 19 20 19 18 13 8 9 7 5 3 1 1 4 4 5 8 7 10 15 15 15 17 16 14 13 13 16 15 13 14
12 13 13 13 13 14 14 14 14 14 15 14 14 14 14 15 14 14 14 14 15 15 16 16 16 16 16 16 15 15 14 12 15 17 13 14 14 13 13 12 12 12 13 13 13 14 13 12 13 16 16 16 16 17 18 19 19 20 22 22 18 15 13 10 10 10 8 6 3 2 5 5 6 9 9 10 14 15 14 14 13 12 13 14 15 13 10 11
12 13 13 13 13 14 14 14 14 14 15 14 14 14 14 14 14 14 14 14 15 14 15 15 16 16 15 16 14 14 10 4 14 18 12 13 14 12 13 11 12 11 12 13 13 14 14 14 15 16 17 17 17 18 20 20 19 19 22 24 20 13 11 10 9 10 10 10 8 5 6 6 6 9 9 11 14 14 13 12 11 10 11 12 14 12 9 9
12 13 13 13 13 13 14 14 14 14 14 14 14 14 14 14 14 14 14 14 14 14 14 14 15 15 15 15 13 13 8 5 16 18 11 12 12 12 12 11 11 10 11 13 13 14 15 17 18 19 19 19 19 20 20 20 20 20 20 22 22 16 12 9 7 10 12 11 11 8 9 7 7 8 9 12 12 11 11 13 11 9 12 13 13 12 9 10
13 13 13 13 13 13 13 13 14 14 14 14 14 14 14 14 14 14 14 14 14 13 13 13 14 14 14 14 12 13 9 11 19 18 13 12 11 11 11 10 10 10 11 13 14 15 15 17 19 19 19 19 19 20 19 19 21 22 21 18 19 19 16 12 7 9 11 12 11 10 9 9 10 8 9 13 11 10 13 16 13 9 12 12 12 11 10 11
13 13 13 13 13 13 13 13 13 13 13 14 14 14 14 14 14 15 14 14 14 13 13 13 13 12 13 12 12 10 8 15 20 16 15 15 13 11 10 10 9 9 10 12 14 14 14 16 18 18 18 18 18 18 19 19 22 24 23 17 15 18 18 16 13 10 10 12 13 12 11 11 12 9 9 13 12 11 13 15 14 11 12 12 11 10 10 10
14 14 14 14 14 14 13 13 13 13 13 13 13 13 13 13 14 15 14 13 13 13 13 12 12 12 11 11 11 6 8 18 18 15 16 15 14 13 12 11 10 10 9 10 13 13 14 15 17 18 17 17 16 18 18 20 22 22 24 21 15 15 16 16 17 14 13 14 13 14 14 13 13 12 11 13 12 13 15 15 13 13 13 11 11 11 10 10
14 14 14 14 14 14 14 14 13 13 13 13 13 13 13 13 13 14 14 13 13 13 13 12 11 11 10 11 9 5 12 21 17 16 16 14 14 14 14 13 11 11 9 9 11 14 14 13 14 16 16 16 16 18 19 21 20 15 18 22 20 16 15 15 16 17 15 14 15 15 16 15 14 15 15 14 14 15 16 14 13 13 13 12 12 12 11 12
15 15 15 15 15 14 14 14 14 13 13 13 13 13 13 13 13 14 14 14 13 12 12 11 11 10 10 12 10 9 17 21 16 17 15 14 15 14 14 13 12 11 9 9 11 14 15 13 12 13 15 16 15 16 19 22 19 13 13 17 21 20 16 15 16 17 16 16 16 16 17 17 15 17 18 15 16 16 14 13 14 13 12 15 13 11 12 15
15 15 15 15 15 15 15 14 14 14 14 13 13 13 13 13 13 13 13 13 13 12 12 11 11 10 11 12 12 15 20 19 17 17 15 15 15 14 14 13 12 11 10 11 12 13 16 15 15 14 12 13 14 15 17 20 21 17 14 14 18 21 20 19 18 17 17 16 16 16 19 20 19 20 19 15 15 16 15 14 14 14 13 15 12 11 15 17
16 16 16 16 16 15 15 15 15 14 14 14 13 14 13 13 13 12 12 12 12 12 11 11 11 11 12 11 13 17 17 17 17 16 15 15 14 14 14 13 12 12 12 13 11 12 16 18 19 17 11 10 12 14 13 15 19 18 16 15 16 20 22 22 21 19 19 17 15 16 21 23 22 22 21 19 16 15 16 16 14 14 14 14 14 14 17 18
16 16 16 16 16 16 16 15 15 15 15 15 14 14 14 13 13 12 12 12 12 11 11 12 11 12 13 11 14 15 15 17 18 16 16 15 14 15 14 13 12 12 14 15 13 13 17 19 18 17 14 13 11 13 13 12 17 18 17 18 19 20 20 21 23 22 20 18 16 18 20 21 21 23 23 23 20 16 16 17 15 14 13 14 16 17 18 18
16 16 16 16 16 16 16 16 15 15 15 15 15 14 14 14 13 12 12 11 11 11 11 12 11 13 13 10 13 14 14 17 17 16 17 15 14 14 14 14 12 12 13 14 15 15 16 17 18 15 13 16 11 10 13 14 16 18 18 19 21 21 19 18 23 23 22 19 18 19 19 19 22 24 26 25 21 18 18 17 16 15 14 15 18 19 18 18
17 17 17 16 16 15 16 16 16 15 15 15 15 15 14 13 13 12 12 11 10 10 10 10 10 11 9 8 13 12 13 16 16 16 17 16 13 11 13 14 12 12 12 13 14 14 15 16 16 13 10 15 15 11 13 15 16 18 20 20 19 22 21 16 20 22 22 20 19 20 19 19 20 19 24 25 21 20 20 18 17 16 15 18 20 20 18 19
17 17 17 17 17 16 15 15 16 16 15 15 15 15 14 13 14 12 12 11 10 10 9 8 9 9 8 9 9 8 11 15 16 16 16 16 12 11 14 13 10 11 11 12 12 12 14 14 13 14 12 14 17 16 16 17 17 17 20 21 18 21 22 18 18 20 22 22 21 21 22 20 12 9 18 20 18 19 21 20 18 17 18 19 21 20 19 19
18 18 18 18 17 17 16 15 16 16 16 16 15 15 14 13 13 12 12 12 11 10 8 9 8 6 7 6 3 4 11 14 14 15 16 16 13 14 14 10 9 10 10 11 12 12 13 13 12 13 14 15 17 18 19 17 16 16 18 20 20 19 21 20 17 18 22 23 21 20 23 23 13 8 14 15 16 19 20 20 18 18 19 19 21 22 19 19
18 18 18 18 18 18 17 16 16 15 16 16 15 14 13 13 13 13 13 11 11 9 7 10 9 6 5 6 8 10 14 14 13 14 15 15 14 13 11 9 10 10 12 12 13 14 14 13 14 15 16 17 18 20 20 15 13 16 17 18 19 17 18 20 16 14 18 21 23 21 20 23 20 15 14 15 17 17 18 19 18 18 19 20 22 23 20 20
17 18 18 18 18 18 17 17 16 16 16 16 16 14 12 12 12 14 16 13 10 11 10 12 13 11 8 7 8 13 16 15 11 12 16 15 11 10 10 10 11 12 15 15 13 13 14 15 16 17 17 16 17 19 18 12 9 10 13 16 19 18 16 19 17 13 15 17 20 22 21 20 22 20 16 16 17 17 18 19 19 19 20 21 22 24 21 20
18 19 18 18 19 18 18 17 16 16 15 16 16 13 11 11 10 12 18 17 12 13 13 13 15 13 13 11 10 14 15 13 10 12 17 15 9 10 13 13 15 17 17 15 13 12 14 17 17 16 15 13 15 19 16 12 8 8 9 11 16 17 16 18 17 13 14 16 15 18 21 20 20 21 19 18 17 18 19 20 20 20 20 20 21 25 23 21
20 20 19 19 19 19 18 16 16 17 15 16 15 13 12 12 12 12 17 18 11 12 14 13 14 14 14 15 17 17 14 12 13 14 17 14 11 13 14 15 17 18 17 16 14 12 15 17 16 14 13 11 11 14 14 11 11 13 12 11 14 15 15 16 14 9 11 15 15 15 19 20 19 20 19 18 18 17 19 21 21 20 20 20 22 26 23 20
20 20 20 20 20 20 19 17 16 16 16 16 15 14 13 12 13 12 15 17 11 9 13 15 15 14 14 15 19 20 17 15 14 17 18 15 14 14 14 16 18 17 17 18 16 14 14 16 16 14 12 12 11 10 11 12 13 15 15 15 14 14 16 16 14 11 11 13 15 15 16 19 19 19 18 17 17 16 18 20 21 22 21 19 23 26 21 20
20 20 19 19 20 20 20 18 16 16 15 15 15 14 13 13 12 12 15 18 15 10 10 14 15 15 14 14 17 20 18 17 14 17 20 16 17 16 14 16 17 17 17 18 17 15 12 10 12 13 11 12 13 12 13 14 16 17 18 17 15 15 17 14 10 12 12 13 15 14 14 18 19 19 19 18 17 17 18 20 21 23 21 20 23 25 21 21
19 19 19 18 19 19 20 19 17 16 15 15 15 14 13 12 11 11 14 15 15 10 8 11 12 12 15 16 18 17 17 18 16 17 19 16 18 17 14 15 17 17 17 17 17 18 14 9 11 11 10 12 14 14 15 15 16 17 19 20 17 14 15 12 8 10 12 14 18 17 13 15 19 21 21 19 19 18 18 20 22 23 22 22 24 24 24 25
17 17 17 17 17 18 19 18 17 16 14 14 15 14 12 12 10 9 11 13 12 10 8 8 6 8 13 16 15 12 15 19 17 17 19 16 18 17 13 14 17 16 15 15 16 17 14 10 11 12 11 13 15 15 16 17 17 16 17 21 20 14 14 14 11 12 15 11 13 19 15 12 16 21 22 21 20 20 20 19 22 23 23 25 26 24 26 27
16 16 15 15 15 16 17 17 16 14 12 13 14 12 12 11 9 6 7 10 11 9 8 9 7 6 9 12 14 15 13 17 18 18 20 17 18 18 15 14 16 14 11 13 15 17 15 9 9 12 13 15 16 15 15 17 19 16 12 16 20 16 13 14 13 14 15 9 7 17 18 14 13 17 20 21 20 20 22 21 20 22 21 22 25 27 27 26
14 14 14 14 14 15 15 16 16 14 14 15 12 10 10 9 6 3 4 6 5 7 8 10 10 9 9 10 17 18 8 10 20 21 20 17 17 18 16 14 15 13 11 13 13 12 15 15 12 12 14 14 16 15 14 18 20 14 8 12 17 18 16 14 16 16 14 11 10 15 18 14 11 15 19 21 21 22 23 22 19 21 21 20 24 28 28 27
13 13 12 12 13 13 14 15 15 15 17 16 12 11 11 8 4 4 7 6 4 6 8 9 9 9 10 11 18 19 9 9 16 17 18 18 18 18 15 13 13 14 14 16 15 7 7 15 15 14 16 14 14 13 12 18 19 10 7 12 14 15 17 15 16 17 13 12 13 14 17 13 9 15 19 18 20 21 20 20 20 20 21 22 25 27 27 26
13 13 11 11 12 13 13 14 15 15 15 14 13 12 11 8 7 7 9 6 6 7 7 8 8 8 12 14 18 20 15 11 11 13 18 19 19 18 14 12 12 14 15 17 19 10 4 10 14 16 17 12 8 10 10 15 17 9 7 12 12 13 15 14 15 16 11 11 14 13 16 14 9 14 20 19 19 18 17 18 19 19 21 24 27 25 24 21
14 13 11 10 11 12 12 13 13 14 14 13 13 12 11 11 11 11 9 6 9 9 9 9 8 10 13 15 18 21 18 14 13 16 19 19 20 20 16 14 13 13 14 16 19 15 9 10 15 18 17 10 5 9 11 13 15 11 11 14 14 13 14 14 15 13 9 8 12 14 15 15 10 9 16 20 18 14 14 18 20 18 18 23 28 26 23 21
14 13 12 11 11 11 12 13 12 12 12 12 13 14 12 12 14 15 12 8 7 8 11 11 10 12 14 14 16 20 19 16 16 19 20 20 21 22 19 17 16 15 15 16 17 16 14 14 15 16 16 12 9 11 12 14 15 14 15 16 13 10 10 10 10 9 9 8 9 12 13 15 11 6 8 14 18 15 11 14 21 20 17 21 26 26 23 22
15 14 13 12 11 11 12 12 12 11 11 12 14 16 15 13 14 17 18 13 6 4 7 10 11 11 14 15 16 19 20 17 18 19 20 20 20 21 21 19 17 16 14 14 16 16 14 15 17 16 16 15 15 14 13 14 17 18 18 17 13 7 6 8 7 7 10 9 8 9 9 11 12 8 7 10 18 20 14 15 20 22 22 24 24 24 22 21
15 14 13 12 11 11 11 12 12 11 12 13 15 17 17 16 14 15 19 20 13 6 5 8 10 11 14 15 15 19 21 18 18 19 20 21 21 20 22 21 20 18 15 13 16 17 14 14 19 20 17 17 19 18 13 11 16 19 18 16 14 10 7 6 6 5 7 8 10 11 8 10 12 10 9 9 14 18 20 24 25 25 28 26 22 23 22 20
15 14 13 11 11 11 11 12 12 12 13 15 17 19 21 19 16 16 18 20 18 13 9 10 11 13 15 16 15 17 21 20 18 20 21 23 22 21 21 22 22 21 17 13 13 15 14 13 18 22 18 16 19 19 13 10 14 17 18 17 16 14 11 7 4 2 5 5 7 10 8 8 7 7 10 11 10 13 19 23 22 21 24 21 18 22 23 21
15 14 13 11 10 10 10 12 12 12 14 17 19 22 23 20 17 17 15 14 17 17 15 14 14 16 17 16 16 16 21 21 20 21 21 22 23 22 21 21 22 23 20 16 12 13 14 12 13 20 19 15 17 18 16 14 12 12 17 19 15 12 11 10 6 3 4 6 5 9 10 9 6 5 10 13 11 12 14 15 13 13 16 17 15 16 18 19
14 14 13 11 10 9 10 11 12 14 16 19 22 23 22 20 19 18 14 10 13 15 16 17 16 17 17 17 17 17 19 21 21 22 21 21 22 22 22 20 21 22 21 18 13 11 12 11 9 17 19 17 16 15 16 16 13 11 15 18 13 9 10 10 6 5 7 7 7 10 11 12 10 9 13 15 13 12 11 11 14 14 14 15 12 10 11 13
12 13 12 10 9 9 9 11 12 14 17 20 23 23 20 19 20 20 16 12 11 12 16 18 16 15 16 17 16 15 18 20 20 21 21 19 17 18 21 20 19 21 20 18 16 11 11 13 11 14 17 18 17 16 17 17 18 16 12 12 14 11 10 11 8 5 6 6 7 10 11 13 11 9 17 18 13 12 12 11 14 14 13 14 12 9 7 8
12 11 11 9 9 9 9 10 11 14 18 21 23 23 22 21 20 19 17 14 12 13 15 17 17 14 14 16 16 15 19 20 18 19 20 19 17 16 17 17 17 19 19 18 18 13 11 11 11 13 15 15 16 19 20 18 19 19 13 12 15 13 10 11 11 9 9 6 5 9 10 8 5 4 13 18 14 13 13 11 11 12 12 12 11 9 7 8
10 8 9 11 11 11 10 10 12 15 19 21 21 20 19 20 20 19 18 15 13 13 14 15 17 15 13 15 16 14 15 16 16 17 15 15 16 16 13 13 14 16 16 17 17 15 14 13 11 11 12 13 16 20 22 20 19 20 20 17 16 14 11 11 11 11 12 7 4 8 6 4 5 6 7 14 16 14 14 13 10 10 10 10 10 9 8 8
8 5 9 12 13 11 9 10 13 15 18 20 20 19 18 18 18 18 18 18 16 15 15 14 15 15 13 14 15 14 13 13 14 16 15 13 14 15 15 14 13 13 15 17 16 14 14 14 14 13 13 14 16 17 20 20 17 17 21 22 20 17 13 10 9 12 14 10 7 7 2 3 8 12 9 10 13 12 13 13 11 9 9 10 10 11 11 11
8 6 11 12 12 10 8 9 12 14 17 18 17 17 18 18 17 16 16 17 17 17 16 14 13 14 13 12 11 12 14 14 15 15 16 17 12 11 15 17 15 14 16 17 16 17 15 12 13 17 16 14 11 10 13 16 15 13 16 19 20 21 18 14 10 10 13 12 11 11 5 3 10 13 9 10 12 12 14 13 12 12 11 11 10 11 12 12
5 7 9 10 10 8 7 8 11 14 17 17 15 15 15 16 17 16 15 14 15 16 17 15 13 14 14 12 11 11 11 13 15 12 13 16 13 7 9 13 14 14 15 13 12 17 19 14 14 17 17 16 13 10 11 15 16 17 16 15 17 18 19 19 16 12 14 13 11 12 6 6 12 13 10 12 12 13 15 13 13 14 13 12 11 10 10 9
4 6 7 9 9 6 6 8 9 12 13 13 15 16 15 15 15 16 16 15 13 14 16 16 14 14 15 13 12 12 11 11 13 11 9 11 12 9 10 9 10 11 12 13 12 14 16 13 13 15 13 14 15 12 13 16 18 21 20 17 18 19 17 16 15 13 14 13 11 9 2 5 13 15 12 12 12 13 15 16 16 15 14 14 12 11 10 9
6 7 8 10 11 7 6 8 9 10 10 9 12 14 14 15 14 14 16 15 13 13 14 13 13 13 14 13 12 14 13 10 10 10 9 7 5 8 12 10 9 9 12 16 16 15 15 13 12 10 5 5 7 5 7 11 14 19 21 18 16 18 19 17 13 13 13 12 14 11 4 8 10 13 11 10 13 14 15 18 17 15 14 14 13 12 12 11
5 6 7 10 12 8 5 8 9 9 8 8 8 8 10 12 11 11 14 13 12 11 11 10 10 10 12 13 13 14 14 13 11 9 9 9 5 7 10 10 9 11 13 16 17 18 19 18 18 16 7 2 4 9 11 8 11 16 20 19 16 16 18 17 16 17 15 13 16 14 12 16 12 12 12 12 13 14 17 20 18 17 16 15 14 13 13 13
4 6 7 8 9 6 6 9 9 7 7 8 6 6 7 8 8 8 10 12 10 9 10 9 9 10 12 12 13 14 14 14 14 11 10 10 6 5 7 8 11 14 13 12 14 16 15 15 20 24 19 10 7 7 10 10 9 11 12 13 14 14 14 15 17 16 12 11 8 6 13 18 16 13 13 13 13 14 18 19 17 18 18 16 15 14 14 15
3 5 7 8 7 8 9 7 5 3 6 6 4 4 4 5 6 5 5 8 8 7 8 9 9 9 11 11 12 13 14 14 14 12 11 10 7 6 7 8 12 15 12 9 10 11 10 11 15 21 22 20 20 17 7 7 7 3 1 1 3 7 10 12 12 10 10 9 6 12 15 16 17 16 16 16 15 15 17 18 17 19 20 18 15 15 17 17
4 5 7 9 8 12 14 8 3 2 3 7 4 2 2 2 3 3 2 5 5 4 5 8 8 8 9 11 11 10 12 13 11 10 12 11 8 8 10 8 8 12 11 10 11 11 10 10 11 13 15 18 20 22 21 16 9 3 2 3 3 3 5 5 3 4 6 7 13 17 17 17 16 15 20 25 24 20 19 20 20 19 19 17 15 15 18 19
5 5 6 9 10 11 15 12 6 4 2 9 8 8 7 4 4 4 3 2 3 2 1 3 4 3 4 7 8 9 12 12 10 10 14 13 8 7 9 7 5 9 12 11 12 14 12 8 9 10 10 11 13 14 18 23 22 14 5 4 4 4 5 6 7 8 8 11 16 19 19 19 18 19 21 23 24 23 20 20 20 19 19 19 18 17 17 18
7 7 6 9 10 10 13 13 9 5 1 7 10 12 11 6 4 5 6 6 4 2 3 3 3 3 3 6 10 15 16 16 15 15 17 16 11 7 9 9 6 9 12 12 11 12 12 9 9 10 10 10 11 9 10 14 19 21 18 11 4 1 2 6 10 11 12 12 13 15 16 15 15 17 17 18 20 23 22 21 21 19 17 17 18 17 15 14
8 8 9 11 11 9 10 12 10 8 7 4 8 10 8 6 4 3 4 6 5 4 6 7 6 4 3 8 14 16 16 15 17 16 15 16 15 11 12 12 10 9 10 11 11 11 11 10 10 11 12 12 11 10 9 8 9 14 21 20 12 6 4 7 10 12 15 13 9 10 12 11 12 17 21 22 26 29 28 27 26 24 22 21 22 22 21 20
Wind_Direction
283 284 285 287 287 289 290 292 293 294 296 297 298 299 298 297 295 291 287 284 282 280 278 276 275 274 271 268 266 264 264 264 263 261 259 256 254 252 251 251 248 244 239 235 232 230 229 227 223 221 219 219 216 204 214 218 210 218 223 229 235 233 237 238 227 220 229 226 170 233 203 214 236 220 219 208 199 201 203 198 194 196 184 179 185 168 157 164
283 284 285 286 287 289 290 292 293 294 296 297 299 299 299 300 298 297 291 286 283 280 279 277 274 272 271 268 265 264 264 264 264 263 260 257 254 251 250 249 247 243 239 235 231 229 228 228 224 223 219 216 222 209 210 221 214 213 219 228 232 231 236 236 233 222 221 225 166 191 186 209 226 212 218 204 199 198 198 201 191 191 196 176 161 159 159 165
283 284 285 286 288 289 290 292 293 295 296 297 299 300 302 302 302 301 297 293 286 282 279 276 274 272 270 269 267 267 265 268 269 264 258 256 254 251 250 247 245 241 237 232 226 225 222 224 223 221 217 211 219 215 210 220 220 216 219 230 231 233 243 243 236 231 232 236 180 210 196 212 222 202 194 184 192 193 188 190 186 188 187 160 152 160 162 166
285 286 286 288 289 290 291 292 293 295 295 297 299 300 302 302 305 304 302 300 293 287 280 277 275 271 270 269 269 267 269 279 273 264 258 257 255 252 250 246 243 238 232 228 223 221 212 210 218 215 209 211 216 215 212 216 219 218 222 229 229 236 250 249 236 230 233 229 218 237 210 211 210 196 188 182 184 185 185 186 186 188 172 156 158 164 166 172
287 287 289 290 291 292 292 293 294 295 295 297 298 300 302 302 305 305 305 303 298 294 284 278 274 272 271 268 267 267 271 285 263 262 263 258 256 254 252 247 242 235 226 223 217 216 206 196 212 213 205 211 216 216 217 217 219 222 226 230 232 245 254 244 232 222 222 223 227 226 217 220 200 196 195 190 187 183 185 183 184 194 177 161 167 169 173 182
289 289 291 291 292 294 293 295 295 295 296 296 297 299 301 302 302 303 304 302 300 298 291 283 275 271 270 267 267 262 243 217 253 263 267 261 258 255 254 249 243 233 222 217 211 212 206 196 205 212 208 214 218 219 221 218 221 227 230 233 236 244 245 233 228 228 223 218 219 219 226 227 201 203 198 190 187 178 176 172 167 188 190 173 173 177 178 189
292 292 293 293 294 295 295 296 296 297 297 296 297 298 299 300 299 299 299 299 300 298 296 290 280 272 268 265 262 257 238 232 253 260 261 263 262 256 255 250 242 232 220 212 208 209 208 200 205 211 212 218 221 222 224 220 223 228 232 236 236 237 235 228 229 236 225 207 208 219 230 219 207 212 197 189 188 180 181 180 170 180 195 183 179 185 185 197
295 294 295 295 295 295 295 297 297 298 299 298 299 298 299 299 297 296 295 297 298 298 300 294 287 276 266 263 256 257 249 244 254 258 257 262 261 258 254 247 238 227 218 209 205 205 205 204 206 210 215 221 223 224 225 223 224 228 231 235 236 235 234 233 233 236 228 216 216 223 226 215 211 219 205 199 201 194 192 189 183 186 195 188 185 194 202 215
295 296 296 296 296 296 295 296 297 299 300 300 301 300 300 298 296 295 293 295 296 298 300 297 294 281 268 260 250 248 251 251 256 257 253 257 257 256 251 243 234 220 211 203 197 196 200 207 212 209 215 227 229 228 226 222 225 231 233 232 236 239 235 235 232 232 231 224 223 224 223 218 217 228 219 207 207 201 193 187 185 191 196 193 192 204 220 224
295 296 296 297 296 296 295 295 296 297 299 300 301 302 301 300 298 295 295 295 294 296 298 298 296 284 270 256 239 217 251 254 256 255 250 253 252 252 250 244 236 224 214 205 196 195 196 204 216 214 222 232 233 232 225 220 222 233 237 232 235 240 238 235 231 230 230 226 224 224 222 220 222 229 221 209 208 201 192 189 192 194 199 206 200 207 225 219
295 295 296 296 296 296 294 294 294 295 298 299 301 301 301 301 299 299 299 297 294 293 292 293 290 282 269 253 230 216 246 252 253 254 250 248 247 246 248 245 241 232 219 213 208 202 194 197 211 215 226 231 231 234 226 221 224 235 244 236 233 236 237 234 229 226 224 225 224 220 222 222 223 226 221 213 207 200 194 195 201 199 204 219 212 205 216 214
295 295 296 296 296 295 294 293 292 293 295 297 300 300 301 301 300 302 303 301 296 290 288 288 287 279 265 254 237 228 243 250 248 250 247 245 244 241 243 239 238 230 213 212 223 214 195 199 207 201 217 227 226 234 230 225 227 236 243 238 234 234 237 233 227 225 220 223 223 217 223 224 222 223 219 210 202 200 202 203 207 205 208 224 224 210 210 215
294 294 295 295 295 295 294 292 291 292 293 295 298 298 300 300 301 303 304 304 296 287 284 280 279 276 265 255 246 239 241 246 246 245 244 243 241 238 237 232 231 225 212 206 222 226 205 208 206 197 217 227 221 230 227 221 224 231 236 237 239 235 237 233 225 223 220 222 216 210 221 224 224 226 219 215 211 205 206 208 211 207 210 222 221 213 212 219
294 294 294 293 294 293 293 292 290 291 291 293 296 298 300 301 302 301 301 302 296 287 278 274 274 271 265 251 249 247 236 240 244 242 242 241 238 238 232 229 232 229 223 211 213 226 217 215 202 197 223 220 218 239 226 218 221 226 233 234 237 237 236 228 220 218 216 217 206 203 225 228 226 223 215 217 215 206 207 211 214 211 212 219 220 216 214 223
294 293 293 293 293 293 292 291 290 289 289 292 295 297 301 303 303 301 298 298 298 290 277 274 271 269 270 260 255 250 236 238 241 239 240 237 236 240 237 233 236 233 230 221 218 224 221 216 200 197 225 217 218 241 221 220 223 220 227 228 227 233 240 225 210 210 209 208 200 205 228 233 235 228 210 209 209 207 212 212 214 214 210 216 223 220 216 229
292 292 293 293 293 292 292 291 290 288 288 290 292 297 302 304 303 298 296 295 298 294 281 277 275 274 273 259 257 251 237 237 237 236 236 235 232 238 243 238 237 236 227 221 223 225 219 210 199 202 225 219 219 226 216 219 219 215 222 227 221 222 235 222 196 202 207 204 203 209 223 230 242 231 197 196 206 211 215 214 214 214 213 219 226 224 222 238
290 290 290 291 291 292 292 291 290 289 287 287 290 295 300 304 303 299 294 291 292 292 284 280 277 277 265 251 268 269 242 235 232 231 233 234 222 221 240 240 237 237 224 219 216 213 214 202 198 211 217 216 217 218 220 219 214 213 216 224 226 218 227 219 191 198 207 208 209 210 220 229 235 198 181 189 204 211 214 217 216 212 216 222 230 229 223 234
288 288 287 288 289 290 291 291 290 289 287 287 288 293 300 305 304 300 295 288 288 286 288 292 274 273 283 253 234 237 229 231 228 225 231 234 223 223 238 235 228 225 207 210 205 195 205 201 204 218 214 213 213 212 219 220 213 215 211 218 228 219 220 220 202 199 205 207 209 207 216 227 226 191 194 201 203 210 214 218 217 215 222 222 228 235 226 227
289 288 287 286 285 286 288 288 288 288 287 287 288 292 300 304 307 308 297 284 286 279 280 291 256 216 261 239 207 216 224 232 230 223 229 233 231 230 228 215 210 204 187 194 198 189 198 205 209 218 215 212 213 211 217 225 227 224 216 215 223 220 215 221 218 198 196 202 208 211 215 222 228 216 203 203 204 211 214 218 217 214 224 222 224 234 229 223
290 289 288 287 285 283 283 284 285 286 285 285 287 292 301 309 320 316 296 284 287 274 255 261 248 218 233 254 237 229 232 239 228 219 228 228 227 221 208 199 192 189 188 192 196 191 198 210 212 217 218 213 215 216 221 243 256 239 226 217 219 222 215 216 218 194 189 205 209 216 221 222 227 224 214 210 209 214 214 216 216 211 221 221 219 230 224 217
288 287 287 287 286 284 282 280 281 282 283 283 284 289 294 298 304 294 285 289 290 274 259 251 251 240 233 238 227 219 231 241 215 210 229 225 211 200 196 192 185 191 195 193 193 190 203 219 219 219 221 219 218 218 228 250 254 240 237 224 218 223 220 211 208 188 187 210 215 215 223 226 225 225 224 215 209 216 215 214 215 212 219 216 215 226 220 214
286 286 284 283 283 283 282 280 278 278 279 280 281 284 283 283 286 280 284 292 279 262 271 264 257 254 239 228 226 221 215 219 209 207 224 219 195 192 196 194 190 194 197 192 191 194 211 224 222 218 217 214 211 212 226 238 232 232 240 238 223 219 219 203 190 181 186 208 220 219 223 226 225 227 224 212 211 221 216 214 216 213 215 213 216 226 219 210
286 285 283 282 280 279 280 279 278 276 274 276 276 278 278 279 289 292 292 296 283 259 268 265 257 258 251 233 233 233 210 201 205 206 218 212 186 187 197 198 196 198 199 196 199 201 214 225 220 214 209 206 210 214 224 228 226 230 232 235 228 215 214 206 196 207 210 210 222 228 227 227 227 224 218 210 213 221 217 215 217 213 212 211 218 227 218 208
285 283 282 281 279 278 276 276 276 275 273 273 272 272 275 279 287 295 298 299 295 272 246 251 252 248 244 228 231 237 214 201 202 208 225 214 185 191 200 200 201 205 203 202 208 216 224 224 205 202 202 206 217 221 220 222 222 225 227 230 229 216 215 215 203 205 211 213 222 232 234 228 222 214 212 212 213 217 216 214 213 212 210 210 219 225 216 210
284 282 281 279 279 278 275 274 272 271 271 269 268 268 270 277 284 296 306 308 299 276 242 252 254 239 230 220 228 231 211 210 203 207 232 217 187 195 201 203 208 208 208 207 214 227 233 217 193 198 209 209 215 218 215 218 221 223 224 227 233 228 218 211 188 192 214 218 215 218 232 229 213 209 213 212 210 212 212 211 211 210 208 210 216 219 213 211
285 283 281 278 277 276 275 273 269 268 269 266 264 262 265 271 279 300 312 304 283 258 244 246 237 225 222 221 226 207 201 219 205 203 231 215 187 196 202 206 211 212 213 211 217 229 229 213 207 216 219 212 214 220 216 214 223 230 222 221 232 239 227 213 198 206 223 227 210 209 227 236 207 208 214 208 207 211 211 211 209 208 208 213 219 218 213 211
290 286 284 281 277 274 272 271 267 263 259 261 260 255 259 263 273 306 313 287 261 226 214 213 208 208 206 215 205 177 194 221 199 199 223 208 185 197 205 204 209 216 214 210 219 226 222 214 212 212 212 213 215 221 217 209 221 234 219 211 221 230 228 221 218 223 230 241 215 207 227 242 214 207 206 200 204 206 207 212 209 208 207 210 221 222 214 211
295 291 289 286 281 275 270 267 265 256 246 252 256 249 248 251 257 274 280 278 242 190 194 207 225 225 202 202 189 177 189 196 185 201 215 200 184 192 207 208 209 217 209 208 215 214 219 222 215 204 205 212 217 222 215 207 218 231 217 205 213 220 223 223 227 233 236 239 229 215 223 235 225 210 197 192 202 203 205 211 207 210 207 206 221 221 210 206
299 295 292 288 283 277 271 266 261 255 250 250 247 237 237 236 228 235 250 264 237 207 206 214 235 227 202 196 186 186 194 177 186 206 204 194 185 188 208 215 214 219 213 216 221 209 215 219 214 204 203 211 219 218 206 204 214 220 210 210 212 218 223 225 227 231 232 233 240 227 215 223 222 197 185 186 203 204 203 206 205 208 206 208 221 218 207 206
303 300 297 288 281 277 273 268 258 254 252 245 235 228 224 212 203 229 234 236 245 223 204 215 225 202 189 188 188 194 202 197 195 190 185 191 191 191 209 213 213 221 216 222 229 233 231 209 204 202 205 215 214 201 195 203 212 211 205 210 211 215 219 223 228 231 231 231 242 232 211 223 220 179 185 198 207 205 200 204 207 206 202 208 217 212 207 208
306 304 300 290 282 276 272 269 260 254 249 239 227 216 210 202 211 233 227 230 253 227 204 214 204 187 186 186 191 195 198 200 188 176 178 188 193 197 209 209 208 216 215 220 226 230 232 214 205 205 213 229 215 202 206 210 214 217 218 213 206 207 209 215 220 225 235 234 236 226 205 219 225 183 194 199 195 200 207 212 207 195 199 212 216 211 207 208
309 306 302 293 284 275 268 267 263 254 244 234 220 201 196 207 218 229 229 238 253 214 202 208 194 192 193 192 196 194 194 197 189 185 186 187 193 199 206 206 201 204 210 213 215 219 223 217 207 208 217 221 216 213 205 206 215 215 217 217 210 204 205 215 213 210 230 235 230 220 200 212 224 195 182 169 166 174 181 205 203 191 203 217 214 211 207 209
312 310 305 295 285 274 265 264 262 251 232 221 211 194 198 220 224 223 225 228 225 183 201 208 199 200 198 200 203 194 195 198 190 193 194 192 198 202 208 211 204 207 214 210 207 208 212 213 208 208 214 211 212 214 196 194 209 210 212 216 213 207 207 223 220 210 225 222 211 211 200 217 217 177 161 175 185 190 188 201 199 191 206 216 214 215 212 211
310 311 308 299 288 275 263 259 256 245 225 209 197 193 208 228 227 222 226 230 234 235 229 217 208 209 205 209 211 198 199 203 193 195 197 197 203 205 209 212 208 213 222 218 211 208 207 210 207 207 209 205 211 221 214 199 205 210 217 220 218 218 216 229 236 227 233 217 199 199 202 226 219 177 173 201 204 204 205 207 199 193 203 204 204 215 216 216
307 308 306 302 292 277 261 254 249 239 222 200 191 201 215 223 223 225 231 235 239 238 229 224 221 223 219 216 217 206 204 205 196 197 201 200 206 207 206 209 208 210 217 218 216 215 217 220 212 208 208 206 210 219 225 222 212 209 218 224 224 223 223 236 264 318 310 277 206 195 204 218 207 172 182 189 187 192 195 199 199 199 203 197 198 216 220 218
307 307 306 304 296 281 262 251 242 235 217 195 197 213 219 219 220 227 235 239 241 238 231 228 226 229 227 219 219 212 207 209 202 200 206 207 209 210 207 208 208 209 214 216 212 213 222 231 211 200 204 209 211 214 219 228 227 209 216 227 227 224 230 241 242 208 265 281 228 204 213 203 176 177 198 193 186 181 175 177 182 185 196 200 205 217 215 213
310 310 309 306 297 285 266 250 239 231 213 198 208 221 223 225 227 231 241 244 239 237 234 233 228 227 229 223 220 213 208 211 207 203 207 208 210 211 209 208 206 209 216 219 221 221 227 237 203 188 201 208 209 218 220 226 234 220 218 228 226 222 235 248 251 200 207 237 231 216 215 211 203 186 188 193 189 176 162 171 187 189 192 200 208 213 203 199
313 312 309 304 296 287 269 252 239 227 210 205 218 226 226 230 232 233 241 244 240 237 235 239 236 229 227 225 222 216 211 210 207 207 208 207 209 208 207 210 207 207 213 217 224 227 228 242 223 198 209 211 207 222 226 223 230 233 235 233 228 227 227 230 237 229 222 229 229 220 213 223 233 194 180 189 183 169 164 172 194 199 197 202 211 219 210 191
320 319 307 302 303 294 271 253 240 221 209 211 222 228 228 233 235 233 235 238 243 241 237 238 237 235 235 231 227 219 213 211 211 214 213 208 207 202 204 212 206 202 207 212 219 222 222 242 237 210 213 211 204 216 224 221 221 229 241 240 231 234 234 230 230 230 234 230 223 226 216 214 234 187 183 186 173 170 172 162 180 198 201 210 220 228 233 225
327 322 291 294 306 298 274 253 236 215 211 218 225 230 232 236 238 234 233 236 239 238 240 243 240 238 240 235 231 222 214 218 219 223 229 220 205 199 205 213 203 196 201 207 217 222 219 228 237 223 215 213 211 214 220 221 216 216 224 229 227 226 228 236 238 237 239 239 230 229 216 154 140 127 153 177 177 185 186 171 176 192 199 214 226 234 236 240
342 327 282 295 310 299 277 251 231 217 218 225 230 233 235 237 238 236 234 237 240 237 243 251 243 236 238 236 233 227 223 229 224 224 239 233 199 193 206 208 197 194 199 205 214 220 217 221 231 231 222 219 224 222 217 224 228 220 219 224 228 226 225 233 236 234 238 246 251 236 200 101 163 158 150 186 195 186 176 177 183 183 196 216 223 229 234 243
348 311 280 296 311 299 274 248 233 224 226 230 232 235 237 237 238 237 235 237 238 236 238 245 241 237 241 241 241 238 231 234 232 223 231 235 219 203 208 206 200 201 205 209 214 218 219 224 233 234 231 229 236 229 216 223 235 237 229 226 227 227 227 234 238 236 238 244 251 248 235 148 178 178 175 206 209 181 166 177 188 179 186 204 204 213 229 240
343 299 283 302 318 305 277 259 246 235 234 235 234 235 237 239 239 238 239 238 234 230 229 233 237 240 242 243 248 249 239 239 243 234 223 231 239 219 181 185 194 201 204 203 207 214 216 223 240 243 238 237 239 236 229 229 232 239 240 231 230 230 227 233 240 242 245 245 242 245 239 163 176 191 205 209 196 171 165 178 190 183 181 189 191 197 208 215
331 315 310 320 326 314 283 275 263 252 248 242 240 240 236 238 241 239 237 234 230 227 225 227 235 240 239 241 244 243 242 246 247 241 229 233 239 214 178 181 196 198 203 204 206 212 211 213 235 245 242 236 230 223 226 230 230 234 236 234 238 238 235 241 242 239 245 246 240 244 243 153 184 191 196 197 175 151 159 179 188 184 181 184 181 180 180 184
340 334 323 318 323 316 284 278 269 266 266 252 248 251 242 237 241 240 234 230 228 228 222 224 233 235 233 237 241 240 243 250 248 244 242 240 223 198 200 214 212 203 215 223 224 222 214 209 221 237 252 246 240 253 257 244 235 231 231 235 241 237 236 244 244 239 242 242 245 244 163 131 181 184 169 171 165 155 166 179 180 177 180 180 175 174 172 173
350 326 314 315 318 319 308 290 271 263 272 264 250 252 244 236 237 236 230 226 228 227 224 228 234 233 233 236 241 241 239 240 243 247 245 235 203 183 208 219 208 210 227 234 233 231 226 223 225 231 240 267 314 333 338 308 258 235 229 234 238 235 235 240 241 243 245 243 249 240 173 144 156 175 167 157 159 168 176 178 177 178 180 179 177 178 173 170
355 316 325 333 325 332 333 300 275 260 264 255 236 235 238 234 231 230 225 222 224 225 231 238 236 235 238 237 240 241 237 234 234 238 244 238 217 191 200 193 193 212 226 229 227 226 223 224 228 232 231 224 245 301 357 351 292 248 231 231 232 232 230 231 237 243 251 258 253 190 155 150 147 158 166 160 165 182 184 181 181 182 182 183 185 184 178 176
0 327 344 356 349 359 353 317 281 274 248 217 202 232 235 224 219 219 222 224 223 224 232 239 239 240 241 236 236 237 234 232 231 232 236 233 226 214 193 181 204 219 219 209 211 216 217 222 228 231 231 230 238 247 273 345 343 311 231 219 221 224 217 220 233 235 242 247 181 136 144 148 140 147 168 182 192 192 185 185 186 183 184 187 187 186 184 180
7 354 4 13 13 13 10 7 30 3 228 180 140 120 152 153 178 190 219 219 211 212 234 239 238 242 240 233 233 233 228 226 223 221 220 216 219 216 190 179 216 223 208 198 206 211 216 225 225 226 232 236 242 248 248 255 274 303 15 24 56 99 140 155 151 164 192 178 150 153 163 160 160 181 198 203 201 186 179 187 190 186 185 185 182 186 192 186
31 31 29 28 26 21 18 19 22 13 216 190 163 121 99 92 116 105 81 145 169 156 176 215 220 231 230 215 212 214 215 211 204 210 214 207 207 216 196 183 201 205 196 197 210 212 210 220 223 218 229 233 234 245 247 246 248 248 265 347 24 66 92 120 129 131 140 142 152 168 171 167 186 214 217 209 195 180 179 187 187 183 181 183 182 183 193 195
51 55 60 47 33 22 23 24 21 27 91 193 169 123 89 67 90 98 99 107 107 111 137 158 164 143 139 169 193 208 215 215 213 219 220 209 203 210 204 194 188 193 194 194 204 209 205 212 220 213 224 232 219 220 231 237 244 246 247 261 285 357 99 138 145 142 136 139 159 174 169 163 183 200 198 189 181 180 185 187 183 177 170 171 173 173 177 184
58 62 62 53 38 26 31 33 32 49 78 136 168 140 101 69 77 113 153 142 127 151 169 169 151 125 164 203 209 215 221 225 225 229 228 211 201 200 202 201 196 195 200 203 205 203 197 204 214 213 229 240 222 209 213 216 231 242 242 240 234 218 174 136 136 141 139 139 148 152 147 153 176 188 187 181 179 182 188 191 190 184 177 172 170 171 174 177
Height
3109 3108 3108 3108 3107 3107 3106 3106 3106 3105 3105 3104 3104 3103 3103 3102 3102 3101 3101 3100 3100 3100 3100 3100 3099 3099 3099 3099 3100 3099 3099 3099 3099 3099 3099 3099 3100 3100 3100 3100 3101 3102 3102 3103 3104 3105 3106 3108 3109 3111 3112 3114 3115 3118 3120 3120 3122 3123 3123 3123 3122 3121 3119 3118 3118 3118 3118 3117 3117 3118 3118 3120 3120 3119 3118 3118 3119 3120 3120 3120 3121 3120 3119 3120 3122 3124 3125 3127
3107 3107 3107 3106 3106 3105 3105 3105 3104 3104 3103 3103 3102 3102 3101 3101 3100 3100 3099 3099 3099 3098 3098 3098 3098 3098 3098 3098 3098 3098 3098 3098 3098 3098 3098 3098 3098 3098 3099 3099 3099 3100 3101 3102 3103 3104 3105 3107 3108 3110 3111 3113 3115 3117 3119 3119 3120 3121 3122 3122 3120 3119 3118 3117 3118 3117 3118 3117 3117 3118 3118 3119 3119 3118 3118 3118 3120 3120 3120 3120 3121 3120 3119 3120 3122 3123 3125 3126
3106 3106 3105 3105 3105 3104 3103 3103 3103 3102 3102 3101 3101 3100 3100 3099 3099 3098 3098 3097 3097 3097 3097 3096 3096 3096 3096 3096 3096 3097 3096 3097 3096 3096 3096 3096 3096 3097 3097 3097 3098 3099 3099 3101 3102 3103 3104 3106 3107 3109 3111 3113 3115 3116 3118 3119 3118 3119 3120 3119 3118 3117 3117 3117 3117 3117 3117 3117 3118 3118 3118 3119 3118 3118 3118 3119 3120 3120 3121 3120 3121 3121 3120 3120 3121 3123 3125 3126
3105 3105 3104 3104 3103 3103 3102 3102 3101 3101 3100 3100 3099 3099 3098 3098 3097 3097 3096 3096 3095 3095 3095 3095 3095 3095 3095 3095 3095 3095 3095 3096 3094 3093 3095 3095 3095 3095 3096 3096 3097 3097 3098 3099 3101 3102 3103 3105 3106 3108 3110 3113 3115 3115 3117 3117 3116 3118 3117 3117 3117 3117 3116 3116 3117 3117 3117 3117 3118 3118 3119 3119 3118 3118 3119 3119 3120 3121 3121 3121 3121 3121 3121 3121 3122 3124 3125 3126
3104 3103 3103 3102 3102 3101 3101 3100 3100 3099 3099 3098 3098 3097 3097 3096 3096 3095 3095 3095 3094 3094 3093 3093 3093 3093 3093 3093 3094 3094 3095 3096 3092 3091 3093 3093 3094 3094 3094 3095 3095 3096 3097 3098 3099 3101 3102 3105 3107 3107 3109 3112 3114 3114 3114 3115 3115 3116 3115 3115 3116 3116 3116 3116 3116 3116 3116 3116 3117 3119 3119 3119 3118 3119 3119 3119 3120 3120 3122 3123 3123 3122 3121 3122 3122 3124 3124 3125
3103 3102 3102 3101 3100 3100 3099 3099 3098 3098 3097 3097 3096 3096 3096 3095 3094 3094 3094 3093 3093 3093 3092 3092 3092 3092 3092 3092 3092 3092 3094 3094 3090 3090 3092 3092 3092 3093 3093 3094 3094 3095 3096 3097 3098 3100 3101 3103 3106 3107 3108 3110 3112 3113 3113 3114 3114 3114 3114 3114 3114 3115 3116 3116 3116 3114 3115 3116 3118 3119 3118 3118 3119 3120 3119 3120 3120 3120 3122 3122 3123 3123 3121 3122 3122 3122 3124 3124
3101 3101 3100 3100 3099 3098 3098 3097 3097 3096 3096 3095 3095 3095 3094 3094 3093 3093 3092 3092 3091 3091 3091 3090 3090 3090 3090 3090 3091 3091 3093 3092 3089 3089 3091 3091 3091 3092 3092 3093 3093 3094 3095 3096 3097 3098 3100 3102 3104 3106 3108 3109 3110 3111 3112 3113 3113 3112 3112 3113 3114 3114 3114 3115 3115 3114 3114 3116 3117 3117 3117 3118 3119 3119 3119 3120 3121 3120 3120 3120 3123 3124 3122 3122 3122 3121 3123 3123
3100 3099 3099 3098 3098 3097 3096 3096 3095 3095 3094 3094 3093 3093 3093 3092 3092 3091 3091 3090 3090 3090 3089 3089 3089 3089 3089 3089 3089 3090 3091 3090 3088 3089 3090 3090 3090 3091 3091 3092 3092 3093 3094 3095 3096 3098 3099 3101 3103 3105 3107 3108 3109 3110 3111 3112 3111 3110 3110 3112 3113 3112 3112 3113 3114 3114 3114 3115 3115 3116 3116 3118 3119 3119 3119 3120 3120 3120 3120 3120 3122 3124 3123 3122 3122 3122 3122 3122
3099 3098 3098 3097 3096 3096 3095 3094 3094 3093 3093 3092 3092 3092 3091 3091 3090 3090 3089 3089 3089 3088 3088 3088 3088 3087 3088 3088 3088 3090 3090 3087 3087 3088 3089 3089 3089 3089 3090 3091 3092 3092 3093 3094 3095 3097 3099 3101 3103 3104 3106 3107 3108 3109 3109 3110 3109 3108 3109 3110 3111 3110 3111 3111 3112 3113 3114 3114 3115 3115 3116 3117 3118 3118 3118 3120 3120 3119 3120 3120 3122 3123 3123 3122 3122 3122 3122 3122
3097 3097 3096 3096 3095 3094 3094 3093 3093 3092 3092 3091 3091 3090 3090 3089 3089 3088 3088 3088 3087 3087 3086 3086 3086 3086 3086 3086 3087 3089 3087 3085 3086 3087 3087 3088 3088 3088 3088 3089 3090 3091 3092 3093 3094 3096 3098 3101 3103 3104 3105 3106 3107 3107 3107 3108 3107 3107 3108 3109 3110 3109 3109 3110 3110 3112 3112 3113 3114 3114 3115 3116 3117 3116 3117 3119 3118 3118 3119 3120 3122 3123 3122 3121 3121 3121 3121 3121
3096 3095 3095 3094 3094 3093 3092 3092 3091 3091 3090 3090 3089 3089 3088 3088 3087 3087 3086 3086 3086 3086 3085 3085 3084 3084 3085 3085 3086 3087 3084 3084 3085 3085 3086 3086 3086 3087 3087 3088 3089 3090 3091 3093 3094 3095 3097 3099 3101 3103 3104 3103 3104 3105 3105 3105 3106 3106 3107 3107 3108 3108 3108 3108 3109 3110 3111 3112 3112 3113 3115 3116 3116 3115 3116 3117 3116 3117 3119 3120 3121 3122 3122 3120 3119 3120 3120 3119
3095 3094 3094 3093 3092 3092 3091 3091 3090 3090 3089 3089 3088 3087 3087 3087 3086 3086 3085 3085 3084 3084 3084 3083 3083 3083 3083 3083 3084 3083 3082 3082 3083 3083 3084 3084 3085 3086 3086 3087 3088 3088 3090 3092 3093 3093 3095 3097 3098 3101 3102 3101 3103 3103 3103 3103 3105 3105 3105 3105 3105 3106 3105 3106 3107 3108 3109 3110 3111 3113 3113 3113 3113 3113 3115 3115 3115 3117 3118 3120 3121 3122 3122 3119 3118 3119 3118 3116
3093 3093 3092 3092 3091 3090 3090 3089 3089 3088 3088 3087 3087 3086 3086 3085 3085 3085 3084 3083 3083 3082 3082 3081 3081 3081 3081 3081 3081 3081 3081 3081 3081 3081 3082 3083 3084 3084 3085 3086 3086 3087 3089 3091 3092 3092 3093 3094 3095 3098 3100 3100 3102 3102 3100 3102 3103 3104 3104 3104 3104 3103 3102 3103 3105 3106 3107 3108 3110 3112 3110 3109 3110 3111 3113 3113 3113 3116 3117 3119 3120 3121 3121 3119 3117 3117 3115 3116
3092 3091 3091 3090 3090 3089 3088 3088 3087 3087 3086 3086 3085 3085 3084 3084 3084 3083 3083 3082 3081 3081 3080 3080 3080 3079 3078 3079 3079 3079 3080 3079 3079 3080 3080 3081 3082 3083 3084 3085 3085 3086 3087 3088 3090 3091 3091 3092 3093 3096 3098 3098 3101 3100 3099 3101 3102 3102 3103 3102 3102 3100 3098 3099 3102 3103 3105 3106 3108 3110 3108 3107 3107 3108 3111 3110 3111 3115 3117 3118 3119 3120 3120 3118 3116 3114 3114 3116
3090 3090 3089 3088 3088 3088 3087 3086 3086 3085 3085 3084 3084 3083 3083 3082 3082 3082 3081 3080 3080 3079 3079 3078 3078 3077 3077 3078 3077 3077 3078 3078 3078 3079 3079 3080 3081 3082 3083 3083 3084 3085 3086 3087 3088 3089 3090 3091 3092 3094 3096 3097 3098 3098 3099 3100 3099 3100 3100 3099 3099 3098 3096 3096 3098 3100 3103 3104 3106 3107 3106 3106 3104 3104 3107 3108 3109 3113 3115 3116 3118 3119 3119 3117 3113 3111 3114 3116
3089 3088 3087 3087 3086 3086 3085 3085 3084 3084 3083 3083 3082 3082 3082 3081 3081 3080 3079 3079 3078 3078 3077 3077 3077 3076 3077 3076 3075 3076 3076 3076 3076 3077 3078 3079 3081 3082 3082 3082 3083 3084 3085 3086 3086 3087 3088 3090 3092 3094 3096 3096 3097 3097 3098 3098 3097 3097 3097 3095 3095 3096 3095 3093 3095 3098 3101 3103 3104 3105 3105 3104 3102 3100 3103 3105 3108 3112 3113 3115 3116 3117 3118 3115 3111 3110 3114 3115
3087 3086 3086 3085 3085 3084 3084 3083 3083 3082 3082 3081 3081 3081 3080 3080 3079 3078 3078 3077 3077 3076 3076 3076 3075 3075 3075 3074 3075 3076 3075 3074 3075 3076 3077 3078 3080 3081 3081 3081 3083 3083 3084 3085 3085 3087 3088 3089 3091 3093 3094 3095 3095 3096 3096 3093 3093 3093 3093 3093 3092 3093 3093 3091 3092 3096 3099 3100 3101 3102 3103 3102 3100 3100 3102 3104 3107 3110 3112 3113 3115 3115 3115 3113 3109 3109 3112 3113
3085 3085 3084 3083 3083 3082 3082 3082 3081 3081 3080 3080 3080 3079 3079 3079 3078 3077 3076 3076 3075 3075 3075 3075 3075 3075 3074 3074 3075 3076 3074 3073 3074 3075 3076 3077 3079 3079 3080 3081 3082 3082 3084 3084 3085 3087 3088 3089 3091 3092 3092 3093 3093 3094 3092 3089 3089 3090 3090 3091 3090 3089 3090 3089 3089 3093 3095 3097 3099 3100 3101 3101 3100 3101 3103 3104 3106 3108 3110 3112 3113 3113 3113 3112 3109 3107 3111 3112
3083 3083 3082 3081 3081 3081 3080 3080 3080 3079 3079 3078 3078 3078 3078 3077 3076 3075 3074 3074 3074 3074 3074 3073 3073 3073 3073 3073 3074 3074 3072 3072 3073 3074 3075 3076 3077 3078 3079 3080 3081 3082 3084 3085 3085 3086 3088 3089 3090 3090 3090 3090 3090 3090 3090 3088 3087 3087 3087 3089 3088 3087 3088 3088 3088 3090 3093 3095 3097 3098 3098 3099 3100 3100 3102 3103 3105 3106 3108 3110 3111 3112 3110 3110 3108 3106 3109 3111
3081 3081 3080 3079 3079 3079 3079 3078 3078 3078 3077 3077 3077 3077 3077 3076 3076 3074 3072 3072 3072 3071 3072 3072 3071 3072 3072 3073 3074 3073 3071 3071 3073 3074 3074 3075 3076 3078 3079 3080 3081 3083 3084 3085 3085 3086 3088 3088 3088 3087 3087 3088 3088 3088 3088 3087 3086 3086 3086 3086 3086 3086 3086 3087 3088 3089 3093 3094 3094 3096 3097 3097 3098 3099 3100 3101 3103 3104 3106 3108 3109 3110 3109 3109 3108 3105 3107 3109
3079 3079 3078 3077 3077 3076 3076 3076 3076 3076 3076 3075 3075 3076 3076 3076 3076 3074 3071 3070 3070 3069 3069 3069 3069 3070 3071 3073 3073 3072 3071 3071 3073 3074 3073 3074 3076 3078 3079 3080 3081 3082 3083 3085 3085 3086 3087 3086 3085 3086 3086 3087 3087 3088 3087 3087 3087 3087 3086 3085 3085 3085 3084 3085 3087 3088 3091 3093 3093 3094 3095 3095 3096 3097 3098 3099 3100 3102 3104 3105 3106 3108 3107 3108 3106 3103 3105 3108
3077 3076 3076 3075 3075 3074 3074 3074 3074 3074 3074 3074 3074 3074 3075 3074 3074 3073 3071 3069 3068 3068 3067 3067 3067 3067 3068 3069 3069 3069 3071 3072 3073 3073 3072 3073 3076 3077 3078 3079 3081 3082 3083 3084 3085 3085 3085 3084 3084 3084 3085 3085 3085 3086 3087 3087 3088 3088 3087 3086 3084 3084 3083 3083 3086 3088 3090 3092 3092 3093 3093 3093 3094 3096 3096 3097 3098 3100 3102 3103 3104 3106 3106 3107 3105 3101 3103 3107
3074 3074 3073 3073 3072 3072 3072 3072 3072 3072 3072 3072 3073 3073 3073 3073 3072 3071 3069 3067 3066 3066 3066 3065 3065 3065 3066 3067 3066 3066 3069 3071 3072 3072 3071 3072 3075 3077 3078 3079 3080 3081 3082 3083 3083 3083 3083 3081 3082 3083 3083 3084 3084 3085 3086 3087 3088 3087 3087 3085 3083 3083 3082 3082 3085 3088 3089 3090 3091 3091 3091 3091 3092 3093 3095 3095 3097 3098 3100 3101 3102 3103 3104 3105 3103 3099 3101 3105
3072 3071 3071 3070 3070 3069 3070 3070 3070 3070 3070 3070 3071 3071 3071 3071 3070 3070 3068 3066 3064 3063 3064 3064 3063 3064 3064 3065 3064 3064 3067 3069 3071 3071 3069 3071 3075 3076 3077 3079 3079 3080 3080 3081 3082 3081 3080 3079 3080 3082 3082 3083 3085 3085 3086 3086 3086 3086 3086 3084 3082 3082 3082 3082 3085 3087 3088 3089 3089 3090 3089 3089 3090 3091 3093 3093 3095 3096 3097 3099 3100 3101 3102 3103 3101 3098 3100 3103
3069 3069 3068 3068 3068 3067 3067 3068 3068 3068 3069 3069 3069 3069 3070 3070 3069 3069 3067 3065 3063 3061 3061 3062 3061 3062 3062 3062 3062 3063 3066 3067 3069 3071 3068 3069 3073 3075 3077 3078 3078 3079 3079 3080 3081 3080 3079 3078 3079 3081 3081 3082 3084 3084 3085 3085 3085 3084 3083 3083 3082 3081 3081 3082 3084 3087 3087 3086 3086 3088 3087 3084 3086 3089 3090 3091 3093 3094 3095 3096 3097 3098 3100 3099 3098 3097 3099 3102
3067 3066 3066 3066 3065 3065 3065 3065 3066 3066 3067 3067 3067 3068 3068 3068 3069 3068 3067 3065 3062 3060 3060 3060 3060 3059 3059 3059 3060 3062 3066 3065 3067 3070 3067 3068 3072 3074 3076 3077 3076 3077 3078 3079 3079 3079 3077 3077 3078 3080 3081 3082 3082 3082 3083 3084 3083 3081 3080 3081 3081 3081 3081 3081 3083 3085 3084 3082 3083 3086 3084 3081 3083 3085 3087 3089 3091 3092 3093 3094 3095 3096 3098 3097 3096 3097 3099 3102
3065 3064 3064 3063 3063 3063 3063 3063 3063 3065 3065 3065 3065 3066 3067 3067 3068 3068 3067 3065 3060 3058 3059 3058 3058 3058 3057 3058 3059 3062 3065 3063 3065 3067 3066 3066 3070 3073 3074 3075 3075 3075 3076 3078 3077 3076 3076 3076 3077 3078 3079 3080 3081 3080 3081 3082 3082 3079 3078 3080 3081 3081 3082 3082 3083 3083 3081 3082 3083 3084 3083 3080 3080 3082 3084 3087 3088 3090 3091 3092 3094 3095 3096 3096 3095 3096 3099 3101
3063 3062 3062 3061 3061 3061 3060 3060 3061 3062 3063 3063 3064 3065 3065 3066 3067 3067 3068 3065 3058 3056 3057 3056 3056 3056 3057 3057 3058 3061 3062 3061 3063 3064 3064 3066 3069 3071 3072 3073 3075 3074 3075 3076 3074 3073 3074 3075 3076 3077 3078 3078 3078 3078 3079 3080 3080 3078 3078 3079 3080 3081 3081 3082 3082 3081 3080 3082 3080 3081 3082 3079 3078 3081 3082 3085 3086 3088 3089 3090 3092 3093 3096 3096 3093 3095 3098 3100
3061 3060 3060 3059 3059 3058 3058 3058 3059 3059 3060 3061 3062 3063 3064 3066 3066 3066 3068 3065 3056 3054 3056 3055 3055 3055 3055 3056 3057 3060 3061 3062 3063 3062 3063 3065 3067 3070 3071 3072 3073 3074 3074 3074 3073 3073 3073 3074 3075 3076 3076 3076 3076 3076 3077 3078 3078 3078 3079 3079 3079 3080 3080 3080 3080 3079 3080 3080 3078 3078 3079 3077 3077 3079 3081 3083 3084 3086 3087 3089 3090 3091 3093 3094 3092 3093 3097 3098
3059 3058 3058 3058 3057 3056 3056 3056 3056 3057 3058 3059 3060 3062 3063 3064 3065 3066 3066 3061 3054 3053 3054 3054 3054 3054 3054 3056 3057 3059 3061 3062 3062 3062 3063 3065 3066 3068 3070 3070 3071 3072 3073 3072 3071 3072 3072 3072 3073 3074 3074 3074 3074 3075 3075 3076 3077 3078 3078 3078 3078 3078 3079 3079 3078 3078 3079 3078 3075 3076 3077 3076 3075 3076 3079 3081 3083 3084 3085 3086 3088 3089 3090 3091 3091 3093 3095 3095
3057 3056 3056 3056 3055 3054 3054 3054 3054 3055 3056 3057 3059 3060 3062 3063 3065 3063 3060 3056 3053 3052 3053 3053 3053 3053 3053 3055 3056 3057 3059 3060 3061 3061 3062 3064 3065 3066 3067 3068 3069 3070 3071 3070 3070 3071 3071 3071 3072 3072 3072 3073 3074 3074 3075 3076 3076 3077 3077 3076 3076 3076 3076 3077 3077 3078 3078 3075 3074 3074 3076 3076 3074 3075 3077 3078 3081 3084 3084 3086 3087 3088 3089 3090 3090 3093 3094 3093
3054 3054 3054 3053 3053 3053 3052 3052 3052 3053 3054 3056 3057 3059 3061 3062 3062 3058 3056 3055 3052 3049 3050 3052 3052 3052 3053 3054 3055 3055 3057 3058 3059 3060 3061 3062 3063 3064 3065 3066 3067 3067 3067 3068 3068 3069 3070 3070 3070 3071 3071 3072 3073 3073 3073 3074 3075 3076 3075 3074 3073 3074 3075 3075 3074 3075 3075 3073 3073 3073 3075 3075 3074 3075 3076 3077 3080 3082 3084 3085 3085 3087 3088 3089 3090 3092 3093 3092
3052 3052 3051 3051 3051 3051 3050 3050 3051 3051 3052 3054 3056 3057 3060 3059 3055 3054 3054 3053 3050 3048 3050 3051 3051 3051 3052 3052 3053 3054 3055 3056 3056 3058 3060 3061 3062 3062 3063 3064 3065 3065 3064 3065 3066 3067 3068 3068 3069 3070 3070 3070 3072 3071 3071 3072 3073 3073 3073 3072 3072 3073 3076 3076 3072 3071 3072 3071 3072 3074 3074 3074 3074 3075 3076 3078 3080 3081 3083 3083 3083 3086 3087 3088 3090 3091 3091 3092
3051 3050 3049 3049 3049 3048 3048 3048 3049 3049 3050 3052 3054 3056 3057 3055 3051 3052 3052 3050 3048 3048 3050 3050 3050 3051 3050 3051 3051 3051 3053 3054 3055 3056 3058 3059 3059 3060 3061 3062 3063 3064 3063 3063 3063 3063 3064 3064 3065 3067 3067 3068 3069 3068 3068 3070 3071 3072 3071 3071 3071 3071 3073 3074 3070 3069 3069 3069 3071 3073 3074 3073 3073 3074 3076 3078 3078 3080 3083 3083 3082 3083 3083 3085 3088 3088 3090 3092
3049 3048 3048 3047 3047 3046 3046 3046 3047 3048 3048 3050 3052 3053 3052 3050 3050 3050 3049 3048 3048 3048 3048 3049 3050 3049 3049 3049 3049 3049 3050 3051 3052 3054 3055 3055 3056 3056 3058 3059 3060 3062 3062 3062 3061 3061 3061 3060 3061 3064 3065 3066 3067 3067 3068 3069 3069 3069 3070 3070 3069 3070 3071 3071 3070 3070 3071 3070 3069 3071 3073 3073 3072 3074 3076 3077 3077 3078 3082 3083 3084 3083 3082 3083 3083 3085 3089 3091
3047 3046 3046 3045 3045 3044 3044 3044 3045 3045 3046 3048 3050 3049 3047 3047 3048 3047 3046 3047 3046 3046 3047 3047 3047 3047 3047 3047 3047 3048 3048 3048 3049 3051 3051 3052 3053 3054 3055 3056 3057 3059 3059 3060 3060 3060 3060 3059 3059 3061 3063 3065 3066 3067 3068 3068 3066 3068 3069 3068 3067 3069 3070 3069 3069 3071 3074 3073 3069 3069 3072 3072 3073 3075 3077 3078 3079 3079 3081 3083 3084 3083 3082 3081 3080 3081 3087 3089
3045 3044 3044 3043 3043 3042 3042 3042 3043 3043 3044 3046 3046 3045 3045 3046 3046 3045 3045 3046 3045 3045 3045 3044 3044 3044 3045 3045 3045 3046 3046 3046 3047 3048 3048 3049 3049 3050 3052 3054 3055 3057 3058 3059 3060 3060 3060 3058 3058 3060 3062 3063 3065 3066 3067 3067 3066 3066 3067 3067 3067 3068 3069 3069 3068 3069 3071 3072 3069 3068 3070 3070 3070 3073 3076 3078 3080 3080 3080 3081 3081 3081 3081 3081 3080 3081 3084 3087
3044 3043 3042 3041 3041 3041 3041 3040 3041 3041 3042 3043 3043 3043 3044 3044 3044 3044 3044 3045 3045 3045 3045 3043 3042 3042 3043 3043 3043 3044 3045 3045 3045 3045 3045 3046 3047 3048 3051 3052 3053 3055 3057 3058 3059 3060 3060 3058 3058 3060 3061 3062 3064 3065 3065 3065 3066 3066 3066 3067 3066 3066 3067 3068 3069 3069 3069 3068 3067 3066 3068 3069 3068 3070 3073 3077 3078 3078 3078 3079 3079 3080 3081 3082 3082 3082 3083 3085
3042 3041 3040 3039 3040 3039 3039 3039 3039 3040 3041 3041 3041 3040 3041 3041 3041 3042 3043 3044 3044 3044 3043 3042 3041 3041 3041 3042 3042 3043 3043 3043 3044 3044 3044 3045 3045 3046 3049 3050 3051 3053 3056 3057 3058 3059 3060 3060 3059 3059 3060 3060 3062 3063 3062 3063 3064 3065 3066 3066 3065 3065 3066 3066 3067 3067 3066 3065 3066 3066 3065 3067 3069 3069 3071 3074 3077 3077 3077 3078 3079 3080 3081 3082 3083 3083 3084 3085
3041 3040 3038 3038 3038 3037 3037 3037 3037 3037 3038 3038 3038 3039 3039 3039 3040 3040 3041 3042 3043 3043 3042 3041 3040 3040 3041 3041 3041 3041 3042 3043 3043 3042 3042 3043 3045 3046 3047 3048 3049 3052 3054 3055 3057 3058 3059 3060 3059 3059 3059 3059 3059 3059 3060 3060 3061 3063 3064 3064 3064 3065 3065 3066 3066 3066 3064 3063 3063 3063 3063 3066 3069 3070 3071 3073 3075 3076 3076 3078 3079 3080 3080 3081 3083 3084 3084 3085
3040 3040 3038 3036 3036 3035 3035 3035 3035 3035 3036 3036 3037 3037 3038 3038 3038 3038 3039 3040 3041 3041 3041 3040 3040 3040 3040 3040 3040 3040 3042 3042 3042 3042 3043 3043 3045 3046 3047 3047 3049 3051 3052 3054 3056 3057 3058 3058 3058 3059 3058 3057 3057 3057 3058 3059 3058 3059 3061 3062 3063 3063 3064 3064 3064 3065 3065 3063 3061 3062 3064 3068 3070 3070 3071 3073 3074 3075 3076 3077 3078 3079 3080 3081 3083 3084 3085 3085
3039 3039 3037 3035 3035 3034 3033 3033 3033 3034 3034 3034 3035 3036 3036 3036 3036 3037 3037 3038 3039 3039 3039 3039 3039 3040 3040 3040 3039 3039 3040 3041 3041 3042 3042 3043 3044 3045 3046 3047 3048 3049 3051 3053 3054 3055 3056 3057 3057 3057 3056 3055 3055 3055 3056 3057 3058 3058 3058 3059 3060 3061 3062 3062 3062 3063 3064 3063 3062 3062 3064 3068 3071 3071 3072 3073 3073 3075 3076 3076 3078 3079 3080 3082 3083 3085 3086 3086
3040 3039 3036 3034 3034 3032 3032 3032 3032 3032 3032 3032 3033 3034 3034 3034 3034 3035 3036 3036 3036 3037 3038 3039 3039 3039 3040 3040 3040 3039 3040 3040 3040 3040 3041 3042 3044 3045 3046 3047 3048 3049 3050 3052 3053 3053 3055 3057 3057 3056 3055 3055 3055 3055 3056 3057 3058 3058 3057 3058 3058 3059 3060 3061 3061 3063 3063 3062 3062 3061 3062 3068 3071 3071 3072 3073 3073 3074 3076 3076 3078 3079 3081 3082 3084 3085 3086 3086
3038 3037 3035 3033 3032 3031 3031 3031 3031 3030 3030 3031 3031 3031 3032 3033 3033 3034 3034 3035 3035 3035 3036 3037 3038 3038 3039 3039 3039 3039 3040 3040 3040 3040 3040 3041 3043 3045 3047 3047 3048 3048 3049 3050 3051 3052 3054 3056 3056 3054 3053 3054 3054 3053 3055 3056 3057 3057 3057 3057 3058 3058 3059 3060 3061 3063 3062 3061 3062 3061 3063 3068 3069 3070 3072 3073 3073 3075 3076 3076 3078 3080 3081 3082 3084 3085 3086 3087
3037 3037 3035 3033 3031 3031 3030 3029 3029 3028 3028 3029 3029 3029 3030 3031 3031 3032 3032 3033 3034 3034 3035 3036 3037 3037 3037 3038 3039 3039 3039 3039 3039 3039 3040 3040 3041 3043 3045 3046 3047 3048 3047 3048 3050 3052 3053 3055 3055 3055 3055 3057 3056 3054 3055 3055 3055 3055 3056 3057 3057 3058 3059 3060 3060 3061 3061 3061 3062 3062 3064 3068 3069 3070 3072 3073 3074 3076 3076 3076 3078 3080 3081 3082 3084 3085 3086 3087
3037 3037 3035 3033 3031 3030 3029 3028 3027 3027 3027 3027 3028 3028 3029 3029 3030 3030 3031 3031 3032 3033 3034 3035 3035 3036 3036 3037 3038 3037 3038 3039 3039 3039 3040 3040 3041 3042 3044 3045 3046 3046 3045 3047 3049 3051 3052 3053 3055 3055 3057 3059 3059 3058 3056 3056 3055 3054 3055 3056 3057 3058 3058 3059 3060 3060 3059 3060 3061 3061 3062 3065 3068 3070 3072 3074 3075 3075 3075 3077 3078 3080 3081 3082 3083 3084 3086 3087
3036 3035 3034 3032 3030 3029 3028 3027 3025 3026 3026 3026 3026 3027 3028 3029 3029 3029 3030 3031 3032 3032 3033 3034 3034 3035 3035 3036 3036 3036 3037 3037 3038 3038 3039 3040 3040 3041 3043 3044 3044 3044 3045 3046 3048 3050 3052 3052 3053 3055 3056 3057 3058 3058 3056 3056 3055 3054 3054 3055 3056 3057 3057 3059 3059 3059 3059 3059 3060 3061 3062 3064 3068 3071 3072 3074 3075 3075 3075 3077 3078 3080 3081 3082 3083 3084 3085 3087
3036 3034 3033 3031 3030 3029 3027 3025 3024 3024 3024 3024 3026 3027 3028 3029 3029 3029 3030 3030 3031 3032 3033 3033 3033 3034 3035 3035 3035 3036 3036 3037 3037 3038 3039 3039 3040 3041 3042 3043 3043 3043 3045 3047 3047 3049 3051 3052 3052 3053 3055 3055 3056 3057 3057 3057 3057 3056 3055 3056 3056 3055 3056 3058 3058 3058 3059 3059 3060 3062 3063 3065 3069 3071 3071 3072 3074 3075 3076 3077 3078 3079 3080 3081 3083 3084 3085 3086
3035 3033 3032 3031 3030 3028 3027 3024 3024 3023 3023 3024 3025 3026 3028 3029 3029 3029 3030 3030 3031 3031 3032 3032 3033 3033 3034 3034 3035 3035 3035 3036 3036 3037 3037 3038 3040 3040 3041 3042 3042 3042 3045 3047 3047 3048 3050 3050 3051 3052 3053 3054 3054 3055 3057 3058 3058 3058 3058 3057 3057 3056 3056 3056 3057 3057 3058 3059 3060 3062 3063 3065 3068 3070 3069 3070 3071 3073 3075 3075 3077 3079 3080 3081 3082 3083 3083 3084
3034 3033 3032 3032 3030 3029 3027 3025 3024 3023 3023 3024 3024 3025 3027 3029 3029 3029 3030 3030 3030 3031 3031 3032 3033 3033 3033 3034 3034 3033 3033 3034 3035 3036 3037 3038 3039 3039 3039 3040 3041 3042 3044 3046 3045 3046 3048 3049 3050 3051 3052 3053 3053 3053 3055 3055 3056 3058 3058 3057 3057 3057 3056 3055 3055 3056 3057 3059 3061 3061 3061 3062 3064 3067 3068 3069 3071 3073 3074 3074 3076 3078 3079 3080 3081 3081 3081 3082
3034 3033 3032 3032 3032 3030 3028 3027 3025 3024 3023 3024 3025 3025 3027 3029 3030 3030 3029 3029 3030 3030 3031 3032 3032 3033 3033 3032 3031 3031 3031 3033 3034 3035 3036 3037 3038 3039 3039 3040 3042 3043 3044 3045 3044 3045 3047 3048 3049 3050 3051 3051 3051 3053 3053 3053 3055 3056 3056 3057 3057 3057 3056 3055 3055 3055 3057 3059 3061 3061 3060 3061 3062 3064 3066 3068 3070 3071 3072 3072 3074 3076 3078 3080 3080 3080 3081 3081
3034 3033 3032 3033 3034 3033 3031 3030 3028 3026 3025 3025 3026 3026 3026 3028 3029 3029 3029 3029 3029 3030 3030 3030 3031 3032 3031 3029 3029 3030 3031 3033 3033 3034 3036 3037 3037 3039 3039 3040 3042 3042 3043 3043 3043 3045 3047 3047 3048 3049 3049 3049 3051 3052 3053 3054 3054 3053 3052 3054 3056 3056 3056 3056 3055 3056 3056 3058 3060 3061 3061 3061 3061 3061 3063 3064 3065 3067 3067 3068 3070 3071 3073 3074 3075 3076 3076 3077